Weather History for LIED - June, 2013

Change the Weather History Date:

Wednesday, June 12, 2013

  Actual Average Record
Temperature  
Mean Temperature 74 °F -  
Max Temperature 87 °F 85 °F 97 °F (2014)
Min Temperature 61 °F 60 °F 55 °F (2006)
Cooling Degree Days 9    
Growing Degree Days 24 (Base 50)    
Moisture  
Dew Point 60 °F    
Average Humidity 67    
Maximum Humidity 94    
Minimum Humidity 28    
Precipitation  
Precipitation 0.00 in 0.01 in - ()
Sea Level Pressure  
Sea Level Pressure 30.04 in    
Wind  
Wind Speed 8 mph ()    
Max Wind Speed 20 mph    
Max Gust Speed 28 mph    
Visibility 8.6 miles    
Events      
Averages and records for this station are not official NWS values.
T = Trace of Precipitation, MM = Missing Value Source: Averaged Metar Reports

Daily Weather History Graph

Daily Weather History Graph

Search for Another Location

Airport or City:

Trip Planner

Search our weather history database for the weather conditions in past years. The results will help you decide how hot, cold, wet, or windy it might be!

Date:

Astronomy

Jun. 12, 2013 Rise Set
Actual Time 5:56 AM CEST 8:51 PM CEST
Civil Twilight 5:24 AM CEST 9:23 PM CEST
Nautical Twilight 4:43 AM CEST 10:04 PM CEST
Astronomical Twilight 3:57 AM CEST 10:51 PM CEST
Moon 9:19 AM CEST (6/12) 11:19 PM CEST (6/12)
Length of Visible Light 15h 59m
Length of Day
14h 54m
Waxing Crescent, 12% of the Moon is Illuminated
Jun 12
Waxing Crescent
Jun 16
First Quarter
Jun 23
Full
Jun 30
Last Quarter
Jul 8
New

Hourly Weather History & Observations

Time (CEST) Temp. Heat Index Dew Point Humidity Pressure Visibility Wind Dir Wind Speed Gust Speed Precip Events Conditions
12:55 AM 66.2 °F - 62.6 °F 88% 30.04 in - North 4.6 mph - N/A   Clear
1:55 AM 64.4 °F - 62.6 °F 94% 30.04 in - WNW 3.5 mph - N/A   Clear
2:00 AM 65 °F - 62 °F 86% 30.06 in 9 mi WNW 3.5 mph - -  
2:55 AM 62.6 °F - 60.8 °F 94% 30.04 in - NNW 4.6 mph - N/A   Clear
3:55 AM 64.4 °F - 60.8 °F 88% 30.04 in - North 10.4 mph - N/A   Clear
4:55 AM 64.4 °F - 60.8 °F 88% 30.04 in 6.2 mi NE 4.6 mph - N/A   Scattered Clouds
5:00 AM 64 °F - 60 °F 84% 30.05 in 9 mi NE 4.6 mph - -   Partly Cloudy
5:55 AM 62.6 °F - 59.0 °F 88% 30.04 in 6.2 mi North 2.3 mph - N/A   Partly Cloudy
6:55 AM 62.6 °F - 59.0 °F 88% 30.04 in 6.2 mi NNE 2.3 mph - N/A   Partly Cloudy
7:55 AM 64.4 °F - 59.0 °F 83% 30.04 in 6.2 mi NW 3.5 mph - N/A   Partly Cloudy
8:00 AM 64 °F - 59 °F 78% 30.06 in 12 mi NW 3.5 mph - -   Scattered Clouds
8:55 AM 69.8 °F - 62.6 °F 78% 30.04 in 6.2 mi NW 9.2 mph - N/A   Partly Cloudy
9:55 AM 73.4 °F - 62.6 °F 69% 30.04 in - WNW 8.1 mph - N/A   Clear
10:55 AM 77.0 °F - 59.0 °F 54% 30.04 in 6.2 mi NW 10.4 mph - N/A   Partly Cloudy
11:00 AM 77 °F - 60 °F 45% 30.05 in 19 mi NW 10.4 mph - -   Scattered Clouds
11:55 AM 82.4 °F 82.9 °F 60.8 °F 48% 30.04 in 6.2 mi NW 13.8 mph - N/A   Partly Cloudy
12:55 PM 84.2 °F 83.8 °F 59.0 °F 42% 30.04 in 6.2 mi NNW 17.3 mph - N/A   Scattered Clouds
1:55 PM 84.2 °F 83.8 °F 59.0 °F 42% 30.04 in 6.2 mi NW 16.1 mph 27.6 mph N/A   Scattered Clouds
2:55 PM 86.0 °F 85.4 °F 59.0 °F 40% 30.01 in 6.2 mi NNW 16.1 mph - N/A   Scattered Clouds
3:55 PM 84.2 °F 83.0 °F 55.4 °F 37% 30.01 in 6.2 mi NW 18.4 mph - N/A   Partly Cloudy
4:55 PM 84.2 °F 83.0 °F 55.4 °F 37% 30.01 in 6.2 mi NNW 19.6 mph - N/A   Partly Cloudy
5:00 PM 84 °F - 56 °F 28% 30.02 in 19 mi NNW 19.6 mph - -   Scattered Clouds
5:55 PM 84.2 °F 83.0 °F 55.4 °F 37% 30.01 in 6.2 mi NW 18.4 mph - N/A   Partly Cloudy
6:55 PM 80.6 °F 80.3 °F 53.6 °F 39% 30.01 in 6.2 mi NNW 17.3 mph - N/A   Partly Cloudy
7:55 PM 77.0 °F - 59.0 °F 54% 30.01 in 6.2 mi NNW 16.1 mph - N/A   Partly Cloudy
8:00 PM 77 °F - 60 °F 45% 30.01 in 19 mi NNW 16.1 mph - -   Scattered Clouds
8:55 PM 73.4 °F - 64.4 °F 73% 30.01 in - NNW 16.1 mph - N/A   Clear
9:55 PM 69.8 °F - 66.2 °F 88% 30.04 in - NNW 11.5 mph - N/A   Clear
10:55 PM 68.0 °F - 64.4 °F 88% 30.06 in - NNW 8.1 mph - N/A   Clear
11:00 PM 68 °F - 65 °F 86% 30.06 in 10 mi NNW 8.1 mph - -  
11:55 PM 66.2 °F - 64.4 °F 94% 30.06 in - NNW 10.4 mph - N/A   Clear